User: anonymous   Login
Location: Vale
(35.4830°N, 81.3830°W)
Time: 09:31:53
(UTC-05:00)
Language:

Oscar 11 - Orbit

View from above orbital plane
View from above orbital plane
View from above satellite
View from above satellite

Ground track
Ground track

The orbit data is extracted from the following two-line orbital elements,

1 14781U 84021B   16339.76269748  .00000124  00000-0  21629-4 0  9998
2 14781  97.7268  26.3319 0009896 113.2873 246.9384 14.82834330761537
Epoch (UTC): 04 December 2016 18:18:17
Eccentricity: 0.0009896
inclination: 97.7268°
perigee height: 613 km
apogee height: 627 km
right ascension of ascending node: 26.3319°
argument of perigee: 113.2873°
revolutions per day: 14.82834330
mean anomaly at epoch: 246.9384°
orbit number at epoch: 76153

The dashed part of the orbit path shows where the satellite is in the earth's shadow,  

DLR